FW7738 Weather Reports


time (UTC)temp
F
wind
direction
speed
knots
gust
knots
rain 1hr
in
rain 24hr
in
rain mn
in
humidity
%
barometer
mb
20260831150031 81 110 9.6 15.6 0.00 0.00 0.00 76 1016.0
20260831145047 80 98 10.4 16.5 0.00 0.00 0.00 77 1016.2
20260831144022 80 95 7.8 16.5 0.00 0.00 0.00 78 1016.2
20260831143017 81 90 6.1 15.6 0.00 0.00 0.00 76 1016.3
20260831142032 81 84 7.8 16.5 0.00 0.00 0.00 76 1016.2
20260831141028 81 86 10.4 16.5 0.00 0.00 0.00 75 1016.1
20260831140023 81 89 6.1 14.8 0.00 0.00 0.00 74 1016.3
20260831135018 82 80 7.0 19.1 0.00 0.00 0.00 73 1016.3
20260831134034 82 69 6.1 13.9 0.00 0.00 0.00 74 1016.4
20260831133050 82 73 7.0 15.6 0.00 0.00 0.00 71 1016.2
20260831132025 82 75 6.1 14.8 0.00 0.00 0.00 72 1016.3
20260831131020 83 66 7.0 19.1 0.00 0.00 0.00 70 1016.3
20260831130035 83 67 7.0 18.2 0.00 0.00 0.00 70 1016.2
20260831125031 82 74 7.0 16.5 0.00 0.00 0.00 70 1016.5
20260831124026 83 64 7.0 18.2 0.00 0.00 0.00 67 1016.6
20260831123023 83 71 6.1 16.5 0.00 0.00 0.00 67 1016.6
20260831122037 83 88 6.1 16.5 0.00 0.00 0.00 66 1016.6
20260831121032 84 73 4.3 11.3 0.00 0.00 0.00 69 1016.7
20260831120028 83 70 5.2 12.2 0.00 0.00 0.00 69 1016.8
20260831115043 83 83 6.1 13.0 0.00 0.00 0.00 70 1016.9
20260831114018 83 87 7.0 16.5 0.00 0.00 0.00 69 1017.0
20260831113034 83 94 7.8 15.6 0.00 0.00 0.00 67 1016.8
20260831112029 82 81 6.1 16.5 0.00 0.00 0.00 70 1017.0
20260831111024 82 83 6.1 14.8 0.00 0.00 0.00 73 1017.0
20260831110040 82 87 9.6 19.1 0.00 0.00 0.00 74 1017.1
20260831105035 82 94 7.0 15.6 0.00 0.00 0.00 72 1017.1
20260831104050 82 79 6.1 13.0 0.00 0.00 0.00 72 1017.2
20260831103045 82 85 8.7 14.8 0.00 0.00 0.00 72 1017.2
20260831102020 83 88 7.8 15.6 0.00 0.00 0.00 71 1017.1
20260831101016 83 82 6.1 16.5 0.00 0.00 0.00 68 1017.0
20260831100031 83 112 6.1 12.2 0.00 0.00 0.00 68 1016.9
20260831095026 82 101 6.1 13.9 0.00 0.00 0.00 70 1016.9
20260831094021 82 85 5.2 13.0 0.00 0.00 0.00 69 1017.0
20260831093017 82 80 4.3 11.3 0.00 0.00 0.00 70 1016.9
20260831092033 81 71 3.5 7.8 0.00 0.00 0.00 70 1016.8
20260831091028 81 73 4.3 12.2 0.00 0.00 0.00 69 1016.6
20260831090023 81 59 4.3 7.8 0.00 0.00 0.00 70 1016.5
20260831085018 80 60 3.5 7.8 0.00 0.00 0.00 71 1016.5
20260831084034 81 64 0.9 5.2 0.00 0.00 0.00 68 1016.5
20260831083029 79 80 1.7 6.1 0.00 0.00 0.00 71 1016.5
20260831082024 81 98 1.7 3.5 0.00 0.00 0.00 69 1016.4
20260831081019 80 87 0.9 3.5 0.00 0.00 0.00 71 1016.4
20260831080034 79 45 0.9 3.5 0.00 0.00 0.00 71 1016.2
20260831075030 79 10 0.0 0.9 0.00 0.00 0.00 71 1016.2
20260831074026 79 234 0.0 1.7 0.00 0.00 0.00 70 1016.3
20260831073021 78 264 0.9 1.7 0.00 0.00 0.00 70 1016.2
20260831072015 77 281 0.9 2.6 0.00 0.00 0.00 72 1016.1
20260831071031 76 279 0.9 1.7 0.00 0.00 0.00 72 1015.9
20260831070026 76 262 0.9 1.7 0.00 0.00 0.00 69 1015.8
20260831065021 75 339 0.0 0.9 0.00 0.00 0.00 69 1015.7
20260831064016 74 313 0.0 0.9 0.00 0.00 0.00 69 1015.7
20260831063032 74 320 0.9 1.7 0.00 0.00 0.00 68 1015.6
20260831062027 72 324 0.9 1.7 0.00 0.00 0.00 67 1015.4
20260831061043 72 0.0 0.0 0.00 0.00 0.00 71 1015.4
20260831060018 71 0.0 0.0 0.00 0.00 0.00 72 1015.2
20260831055033 71 0.0 0.0 0.00 0.00 0.00 73 1015.0
20260831054029 72 0.0 0.0 0.00 0.00 0.00 71 1015.0
20260831053024 72 0.0 0.0 0.00 0.00 0.00 71 1015.1
20260831052020 72 313 0.0 0.9 0.00 0.00 0.00 69 1014.8
20260831051035 72 291 1.7 2.6 0.00 0.00 0.00 69 1014.6
20260831050050 71 311 0.9 1.7 0.00 0.00 0.00 71 1014.7
20260831045025 71 0.0 0.0 0.00 0.00 0.00 74 1014.7
20260831044020 71 318 0.0 1.7 0.00 0.00 0.00 74 1014.7
20260831043015 71 322 1.7 2.6 0.00 0.00 0.00 75 1014.6
20260831042031 70 337 0.9 1.7 0.00 0.00 0.00 77 1014.5
20260831041026 71 338 0.9 2.6 0.00 0.00 0.00 79 1014.5
20260831040021 71 322 0.9 2.6 0.00 0.00 0.00 80 1014.5
20260831035036 71 332 0.9 1.7 0.00 0.00 0.00 81 1014.6
20260831034032 72 0.0 0.0 0.00 0.00 0.00 80 1014.5
20260831033027 72 0.0 0.0 0.00 0.00 0.00 79 1014.6
20260831032022 72 306 0.0 0.9 0.00 0.00 0.00 79 1014.5
20260831031018 72 289 1.7 3.5 0.00 0.00 0.00 79 1014.5
20260831030053 73 281 0.9 2.6 0.00 0.00 0.00 80 1014.6
20260831025029 73 273 1.7 3.5 0.00 0.00 0.00 80 1014.5
20260831024024 73 281 1.7 3.5 0.00 0.00 0.00 79 1014.5
20260831023019 73 296 1.7 3.5 0.00 0.00 0.00 79 1014.6
20260831022035 73 310 2.6 6.1 0.00 0.00 0.00 80 1014.5
20260831021030 73 297 2.6 5.2 0.00 0.00 0.00 81 1014.5
20260831020026 73 304 1.7 3.5 0.00 0.00 0.00 82 1014.5
20260831015021 73 325 0.9 2.6 0.00 0.00 0.00 82 1014.5
20260831014015 73 333 1.7 5.2 0.00 0.00 0.00 82 1014.3
20260831013112 73 339 0.9 1.7 0.00 0.00 0.00 82 1014.4
20260831012047 73 338 0.9 1.7 0.00 0.00 0.00 82 1014.5
20260831011042 73 351 0.9 1.7 0.00 0.00 0.00 81 1014.6
20260831010016 74 344 0.0 1.7 0.00 0.00 0.00 80 1014.7
20260831005032 74 343 0.9 1.7 0.00 0.00 0.00 79 1014.8
20260831004027 74 331 1.7 2.6 0.00 0.00 0.00 78 1014.9
20260831003023 74 306 2.6 3.5 0.00 0.00 0.00 78 1014.7
20260831002018 74 337 1.7 2.6 0.00 0.00 0.00 78 1014.8
20260831001033 75 342 2.6 3.5 0.00 0.00 0.00 78 1014.9
20260831000049 75 354 1.7 3.5 0.00 0.00 0.00 79 1014.8
20260830235024 75 351 2.6 5.2 0.00 0.00 0.00 79 1014.8
20260830234019 75 347 2.6 5.2 0.00 0.00 0.00 79 1014.8
20260830233035 75 355 2.6 3.5 0.00 0.00 0.00 80 1014.9
20260830232031 75 12 2.6 5.2 0.00 0.00 0.00 80 1014.9
20260830231046 75 19 3.5 6.1 0.00 0.00 0.00 81 1014.9
20260830230021 75 24 2.6 5.2 0.00 0.00 0.00 82 1014.9
20260830225016 76 28 1.7 5.2 0.00 0.00 0.00 83 1014.8
20260830224032 76 46 2.6 7.0 0.00 0.00 0.00 83 1014.8
20260830223027 76 45 1.7 5.2 0.00 0.00 0.00 84 1014.8
20260830222022 76 52 2.6 6.1 0.00 0.00 0.00 84 1014.7
20260830221017 76 49 2.6 7.8 0.00 0.00 0.00 84 1014.8
20260830220032 76 39 1.7 6.1 0.00 0.00 0.00 83 1014.8
20260830215028 76 52 2.6 6.1 0.00 0.00 0.00 83 1014.8
20260830214023 76 51 2.6 6.1 0.00 0.00 0.00 83 1014.7
20260830213038 76 56 2.6 7.0 0.00 0.00 0.00 83 1014.5
20260830212033 77 59 2.6 6.1 0.00 0.00 0.00 82 1014.5
20260830211028 77 52 3.5 9.6 0.00 0.00 0.00 82 1014.5
20260830210104 77 47 3.5 8.7 0.00 0.00 0.00 82 1014.4
20260830205019 77 44 3.5 8.7 0.00 0.00 0.00 82 1014.3
20260830204034 77 53 3.5 9.6 0.00 0.00 0.00 81 1014.3
20260830203029 77 60 2.6 7.8 0.00 0.00 0.00 81 1014.2
20260830202024 78 62 1.7 6.1 0.00 0.00 0.00 81 1014.1
20260830201020 78 55 3.5 7.8 0.00 0.00 0.00 82 1014.0
20260830200015 78 56 1.7 7.0 0.00 0.00 0.00 82 1014.0
20260830195030 78 46 3.5 7.0 0.00 0.00 0.00 83 1013.9
20260830194026 78 55 0.9 5.2 0.00 0.00 0.00 83 1013.6
20260830193021 78 61 2.6 8.7 0.00 0.00 0.00 82 1013.5
20260830192017 78 57 1.7 6.1 0.00 0.00 0.00 80 1013.3
20260830191052 78 64 0.9 3.5 0.00 0.00 0.00 80 1013.3
20260830190027 78 67 0.9 5.2 0.00 0.00 0.00 80 1013.2
20260830185022 78 68 1.7 5.2 0.00 0.00 0.00 80 1013.2
20260830184018 78 62 0.9 5.2 0.00 0.00 0.00 80 1013.0
20260830183033 79 67 1.7 6.1 0.00 0.00 0.00 78 1013.0
20260830182029 79 74 1.7 5.2 0.00 0.00 0.00 78 1012.9
20260830181024 79 82 0.9 3.5 0.00 0.00 0.00 77 1013.0
20260830180019 80 70 1.7 6.1 0.00 0.00 0.00 76 1012.9
20260830175054 80 74 1.7 6.1 0.00 0.00 0.00 76 1012.9
20260830174029 80 71 1.7 5.2 0.00 0.00 0.00 76 1012.9
20260830173105 80 86 1.7 7.8 0.00 0.00 0.00 75 1013.0
20260830172020 80 81 2.6 6.1 0.00 0.00 0.00 75 1013.0
20260830171015 80 91 4.3 7.0 0.00 0.00 0.00 76 1012.8
20260830170030 80 102 3.5 8.7 0.00 0.00 0.00 74 1012.9
20260830165026 81 96 4.3 7.8 0.00 0.00 0.00 74 1012.9
20260830164021 81 101 4.3 11.3 0.00 0.00 0.00 74 1013.1
20260830163017 81 120 4.3 8.7 0.00 0.00 0.00 74 1013.0
20260830162032 81 107 3.5 8.7 0.00 0.00 0.00 73 1013.0
20260830161027 81 93 2.6 8.7 0.00 0.00 0.00 75 1013.1
20260830160023 81 143 6.1 9.6 0.00 0.00 0.00 74 1013.1
20260830155018 81 128 7.0 11.3 0.00 0.00 0.00 75 1013.3
20260830154033 81 117 6.1 13.0 0.00 0.00 0.00 76 1013.2
20260830153029 81 122 7.0 14.8 0.00 0.00 0.00 76 1013.2
20260830152104 80 115 7.8 12.2 0.00 0.00 0.00 76 1013.5
20260830151019 81 125 6.1 12.2 0.00 0.00 0.00 74 1013.4